Carlsbad, CA

3:37 PM PDT on April 25, 2017 (GMT -0700)
McClellan-Palomar

Weather History for KCRQ - March, 2014

Change the Weather History Date:

Sunday, March 23, 2014

  Actual Average Record
Temperature  
Mean Temperature 60 °F -  
Max Temperature 64 °F 60 °F 84 °F (2008)
Min Temperature 55 °F 49 °F 45 °F (2009)
Degree Days  
Heating Degree Days 6    
Growing Degree Days 10 (Base 50)    
Moisture  
Dew Point 51 °F    
Average Humidity 75    
Maximum Humidity 83    
Minimum Humidity 60    
Precipitation  
Precipitation 0.00 in - - ()
Sea Level Pressure  
Sea Level Pressure 30.07 in    
Wind  
Wind Speed 2 mph (WNW)    
Max Wind Speed 10 mph    
Max Gust Speed 16 mph    
Visibility 10 miles    
Events      
Averages and records for this station are not official NWS values.
T = Trace of Precipitation, MM = Missing Value Source: NWS Daily Summary

Daily Weather History Graph

Daily Weather History Graph

Search for Another Location

Airport or City:

Trip Planner

Search our weather history database for the weather conditions in past years. The results will help you decide how hot, cold, wet, or windy it might be!

Date:

Astronomy

Mar. 23, 2014 Rise Set
Actual Time 6:48 AM PDT 7:02 PM PDT
Civil Twilight 6:24 AM PDT 7:27 PM PDT
Nautical Twilight 5:55 AM PDT 7:56 PM PDT
Astronomical Twilight 5:25 AM PDT 8:25 PM PDT
Moon 1:09 AM PDT (3/23) 11:49 AM PDT (3/23)
Length of Visible Light 13h 03m
Length of Day
12h 14m
Waning Gibbous, 53% of the Moon is Illuminated
Mar 23
Waning Gibbous
Mar 23
Last Quarter
Mar 30
New
Apr 7
First Quarter
Apr 15
Full

Hourly Weather History & Observations

Time (PDT) Temp. Dew Point Humidity Pressure Visibility Wind Dir Wind Speed Gust Speed Precip Events Conditions
12:14 AM 57.2 °F 50.0 °F 77% 30.10 in 10.0 mi Calm Calm - N/A   Overcast
12:37 AM 57.2 °F 50.0 °F 77% 30.10 in 10.0 mi Calm Calm - N/A   Overcast
12:53 AM 57.0 °F 50.0 °F 77% 30.10 in 10.0 mi Calm Calm - N/A   Overcast
1:08 AM 57.2 °F 50.0 °F 77% 30.10 in 10.0 mi Calm Calm - N/A   Overcast
1:53 AM 55.0 °F 50.0 °F 83% 30.09 in 10.0 mi Calm Calm - N/A   Overcast
2:44 AM 55.4 °F 48.2 °F 77% 30.08 in 10.0 mi Calm Calm - N/A   Overcast
2:53 AM 55.0 °F 48.9 °F 80% 30.07 in 10.0 mi Calm Calm - N/A   Overcast
3:53 AM 55.9 °F 50.0 °F 80% 30.06 in 10.0 mi Calm Calm - N/A   Overcast
4:53 AM 55.9 °F 50.0 °F 80% 30.07 in 10.0 mi Calm Calm - N/A   Overcast
5:53 AM 57.0 °F 51.1 °F 81% 30.08 in 10.0 mi Calm Calm - N/A   Overcast
6:53 AM 57.0 °F 51.1 °F 81% 30.10 in 8.0 mi Calm Calm - N/A   Overcast
7:53 AM 57.0 °F 51.1 °F 81% 30.12 in 9.0 mi Calm Calm - N/A   Overcast
8:53 AM 57.9 °F 51.1 °F 78% 30.13 in 9.0 mi Calm Calm - N/A   Overcast
9:53 AM 60.1 °F 51.1 °F 72% 30.13 in 10.0 mi North 3.5 mph - N/A   Overcast
10:53 AM 61.0 °F 50.0 °F 67% 30.12 in 10.0 mi Calm Calm - N/A   Overcast
11:53 AM 62.1 °F 50.0 °F 65% 30.10 in 10.0 mi Variable 3.5 mph - N/A   Overcast
12:53 PM 64.0 °F 50.0 °F 60% 30.09 in 10.0 mi Variable 5.8 mph - N/A   Overcast
1:53 PM 63.0 °F 51.1 °F 65% 30.06 in 10.0 mi West 6.9 mph - N/A   Overcast
2:53 PM 63.0 °F 51.1 °F 65% 30.04 in 10.0 mi West 10.4 mph 16.1 mph N/A   Scattered Clouds
3:53 PM 61.0 °F 52.0 °F 72% 30.03 in 10.0 mi WNW 8.1 mph - N/A   Scattered Clouds
4:20 PM 62.6 °F 51.8 °F 68% 30.03 in 10.0 mi Variable 6.9 mph - N/A   Mostly Cloudy
4:53 PM 61.0 °F 51.1 °F 70% 30.02 in 10.0 mi Variable 4.6 mph - N/A   Mostly Cloudy
5:12 PM 60.8 °F 51.8 °F 72% 30.03 in 10.0 mi West 4.6 mph - N/A   Scattered Clouds
5:53 PM 60.1 °F 53.1 °F 78% 30.03 in 10.0 mi Variable 4.6 mph - N/A   Scattered Clouds
6:06 PM 60.8 °F 53.6 °F 77% 30.03 in 10.0 mi West 4.6 mph - N/A   Mostly Cloudy
6:13 PM 60.8 °F 53.6 °F 77% 30.03 in 10.0 mi Variable 4.6 mph - N/A   Mostly Cloudy
6:53 PM 60.1 °F 53.1 °F 78% 30.04 in 10.0 mi West 4.6 mph - N/A   Overcast
7:53 PM 60.1 °F 52.0 °F 75% 30.06 in 10.0 mi Calm Calm - N/A   Overcast
8:53 PM 60.1 °F 53.1 °F 78% 30.06 in 10.0 mi Calm Calm - N/A   Overcast
9:38 PM 60.8 °F 53.6 °F 77% 30.08 in 10.0 mi WSW 3.5 mph - N/A   Overcast
9:53 PM 60.1 °F 53.1 °F 78% 30.07 in 10.0 mi Calm Calm - N/A   Overcast
10:53 PM 60.1 °F 53.1 °F 78% 30.08 in 10.0 mi West 3.5 mph - N/A   Overcast
11:53 PM 60.1 °F 53.1 °F 78% 30.08 in 10.0 mi Calm Calm - N/A   Overcast